#timestamp,LO_Frequency,Hit,StdDev 
1608426015.5,286047007.6,N
1608426035.4,286047005.7,N
1608426055.2,286046999.8,N
1608426075.0,286047000.7,N
1608426075.9,286047000.7,N
1608426095.8,286046999.3,N
1608426115.6,286046998.3,N
1608426135.4,286046999.5,N
1608426155.3,286046999.9,N
1608426175.1,286047000.9,N
1608426195.9,286046996.5,N
1608426215.7,286047000.5,N
1608426235.5,286047003.4,N
1608426255.4,286047005.0,N
1608426275.2,286047002.8,N
1608426295.0,286047004.1,N
1608426295.9,286047004.1,N
1608426315.8,286046998.2,N
1608426335.6,286046999.7,N
1608426385.5,286047007.5,E
1608426395.4,286047002.0,N
1608426415.2,286046996.7,P
1608426435.1,286047000.7,N
1608426436.0,286047000.7,N
1608426455.8,286046997.5,N
1608426475.7,286046994.0,N
1608426495.5,286046996.4,N
1608426515.3,286046997.5,N
1608426535.2,286046994.9,N
1608426555.0,286046994.5,N
1608426555.9,286046994.5,N
1608426575.7,286046993.9,N
1608426595.6,286047000.4,N
1608426615.4,286046996.7,N
1608426635.3,286046995.8,N
1608426655.1,286046994.0,N
1608426656.0,286046994.0,N
1608426675.8,286046997.8,N
1608426695.7,286046999.3,N
1608426715.5,286047001.5,N
1608426735.3,286047000.3,N
1608426755.2,286047001.5,N
1608426775.0,286046997.5,N
1608426775.9,286046997.5,N
1608426795.8,286046999.9,N
1608426815.6,286046998.8,N
1608426835.4,286046997.4,N
1608426855.3,286046997.0,N
1608426875.1,286046998.3,N
1608426895.8,286046995.8,N
1608426915.7,286046994.0,N
1608426935.5,286046991.9,Y
1608426955.4,286046996.1,P
1608426975.2,286046995.9,P
1608426995.0,286046994.5,P
1608426995.9,286046994.5,Y
1608427015.8,286046996.9,P
1608427035.6,286047000.8,N
1608427055.5,286047002.2,N
1608427075.3,286047006.7,N
1608427095.1,286047008.4,N
1608427115.9,286047008.1,N
1608427135.7,286047005.6,N
1608427155.5,286047004.7,N
1608427175.4,286047001.9,N
1608427195.2,286047005.6,N
1608427215.1,286047004.4,N
1608427216.0,286047004.4,N
1608427235.8,286047003.6,N
1608427255.6,286047003.0,N
1608427275.5,286047006.3,N
1608427295.3,286047010.0,N
1608427315.1,286047012.1,Y
1608427335.9,286047003.4,P
1608427355.7,286046998.2,P
1608427375.6,286047001.2,N
1608427395.4,286047002.3,N
1608427415.2,286047000.4,N
1608427435.1,286046998.9,N
1608427436.0,286046998.9,N
1608427455.8,286046997.7,N
1608427475.6,286046998.3,N
1608427495.5,286046998.9,N
1608427515.3,286046999.3,N
1608427535.2,286046997.9,N
1608427555.9,286046999.2,N
1608427575.7,286046999.2,N
1608427595.6,286046998.0,N
1608427615.4,286047000.9,N
1608427635.2,286046998.1,N
1608427655.1,286046997.0,N
1608427656.0,286046997.0,N
1608427675.8,286046994.9,N
1608427695.7,286046997.6,N
1608427715.5,286046995.6,N
1608427735.3,286046996.9,N
1608427755.2,286046996.8,N
1608427775.0,286046997.2,N
1608427775.9,286046997.2,N
1608427795.8,286046995.2,N
1608427815.6,286046994.4,N
1608427835.4,286046995.0,N
1608427855.3,286046996.2,N
1608427875.1,286046994.2,N
1608427895.8,286046994.4,N
1608427915.7,286046994.0,N
1608427935.5,286046993.9,N
1608427955.4,286046994.5,N
1608427975.2,286046995.3,N
1608427995.0,286046994.5,N
1608427995.9,286046994.5,N
1608428015.8,286046993.7,Y
1608428035.6,286046999.0,P
1608428055.4,286047002.5,N
1608428075.3,286047005.8,N
1608428095.1,286047004.1,N
1608428115.9,286047003.7,N
1608428135.7,286047007.4,N
1608428155.5,286047001.3,N
1608428175.4,286047005.6,N
1608428195.2,286047002.5,N
1608428215.1,286047007.3,N
1608428216.0,286047007.3,N
1608428235.8,286047005.3,N
1608428255.6,286047002.9,N
1608428275.5,286047002.1,N
1608428295.3,286047005.6,N
1608428315.1,286047008.6,N
1608428335.9,286047006.4,N
1608428355.7,286047009.0,N
1608428375.6,286047011.9,Y
1608428395.4,286047002.3,P
1608428415.2,286047000.6,N
1608428435.1,286046998.4,N
1608428436.0,286046998.4,N
1608428455.8,286047000.6,N
1608428475.7,286046999.2,N
1608428495.5,286046996.8,N
1608428515.3,286046997.8,N
1608428535.2,286046997.4,N
1608428555.0,286046995.0,N
1608428555.9,286046995.0,N
1608428575.7,286047011.9,Y
1608428595.6,286047001.4,P
1608428615.4,286047002.5,N
1608428635.3,286046999.7,N
1608428655.1,286047001.2,N
1608428675.8,286047000.1,N
1608428695.7,286047003.7,Y
1608428715.5,286047004.9,P
1608428735.4,286047002.4,N
1608428755.2,286047005.7,P
1608428775.0,286047004.7,N
1608428775.9,286047004.7,N
1608428795.8,286047008.3,Y
1608428815.6,286046999.8,P
1608428835.4,286047001.2,N
1608428855.3,286047004.0,N
1608428875.1,286047005.9,Y
1608428895.9,286047001.5,P
1608428915.7,286047000.5,N
1608428935.5,286047002.0,N
1608428955.4,286047001.0,N
1608428975.2,286046999.3,N
1608428995.1,286046998.6,N
1608428996.0,286046998.6,N
1608429015.8,286046999.0,N
1608429035.6,286046998.2,N
1608429055.5,286046996.9,N
1608429075.3,286047000.2,N
1608429095.1,286046999.4,N
1608429115.9,286046997.7,N
1608429135.7,286046995.2,Y
1608429155.6,286046995.0,P
1608429175.4,286046996.9,N
1608429195.2,286046998.2,N
1608429215.1,286046997.8,N
1608429216.0,286046997.8,N
1608429235.8,286046995.8,Y
1608429255.6,286046996.6,P
1608429275.5,286046999.5,N
1608429295.3,286046999.3,N
1608429315.2,286046998.3,N
1608429335.9,286047003.9,Y
1608429355.7,286047002.2,P
1608429375.6,286046999.8,N
1608429395.4,286046999.7,N
1608429415.2,286047002.3,N
1608429435.1,286047002.6,N
1608429436.0,286047002.6,N
1608429455.8,286047002.7,N
1608429475.7,286047000.3,N
1608429495.5,286047006.0,Y
1608429515.3,286047002.3,P
1608429535.2,286047000.1,N
1608429555.0,286047004.3,P
1608429555.9,286047004.3,N
1608429575.8,286046999.7,N
1608429595.6,286047002.1,N
